Location: B�di�
(14.6834°N, 3.1047°W)
Time: 03:48:09
(UTC+00:00)

CZ-3C R/B - Pass Details

Date: 24 January 2020
Orbit: 268 x 33621 km, 20.6° (Epoch: 18 February)

Event Time Altitude Azimuth Distance (km) Brightness Sun altitude
Rises 19:20:56 0° 282° (WNW) 16,229 9.4 -17.8°
Reaches altitude 10° 19:44:35 10° 284° (WNW) 8,831 7.7 -23.3°
Maximum altitude 20:03:31 83° 11° (N) 1,005 1.9 -27.8°
Enters shadow 20:03:51 78° 70° (ENE) 964 1.7 -27.9°
